Date String (YYYY-MM-DD hh:mm:ss) UTC,Instrument flags,absolute air pressure of the measurement (hPa),sample flow rate (lpm),inlet stack bypass flow (lpm),air temperature of the measurement (°C),ambient temperature measured by the external sensor (°C),aerosol sample conditioner tube jacket temperature (°C),OPC LED temperature (°C),internal box temperature (°C),relative humidity of the measurement (%),span deviation,mass concentration of particles derived from Lorenz-Mie calculation of OPC scattering (μg/m³),mass concentration of particles derived from Lorenz-Mie calculation of OPC scattering (μg/m³),mass concentration of particles derived from Lorenz-Mie calculation of OPC scattering (μg/m³)
DateTimeUTC,F1_M11,P_M11,Q1_M11,Q2_M11,T1_M11,T2_M11,T3_M11,T4_M11,T5_M11,U1_M11,ZSPAN_M11,X0_M11,X2_M11,X1_M11
2023-08-12 02:00:00,SystemResetWarning,0831.6,5.00,000.00,028.9,027.6,000.0,037.3,030.7,29.5,0000.0,0007.49,0003.81,0003.13
2023-08-12 02:01:00,SystemResetWarning,0831.6,5.00,000.00,029.0,027.7,000.0,037.3,030.8,29.3,0000.0,0007.45,0003.80,0003.14
2023-08-12 02:02:00,SystemResetWarning,0831.6,4.99,000.00,029.0,027.9,000.0,037.4,030.8,29.3,0000.0,0007.38,0003.77,0003.14
2023-08-12 02:03:00,SystemResetWarning,0831.6,4.99,000.00,029.0,026.8,000.0,037.3,030.6,29.2,0000.0,0008.03,0003.76,0003.14
2023-08-12 02:04:00,SystemResetWarning,0831.6,5.01,000.00,029.0,025.6,000.0,037.2,030.4,29.2,0000.0,0008.13,0003.71,0003.13
2023-08-12 02:05:00,SystemResetWarning,0831.6,5.01,000.00,028.9,025.5,000.0,037.1,030.2,29.3,0000.0,0008.22,0003.74,0003.14
2023-08-12 02:06:00,SystemResetWarning,0831.6,5.01,000.00,028.8,025.7,000.0,037.2,030.2,29.3,0000.0,0008.28,0003.76,0003.16
2023-08-12 02:07:00,SystemResetWarning,0831.6,4.99,000.00,028.8,026.1,000.0,037.2,030.3,29.1,0000.0,0008.16,0003.75,0003.16
2023-08-12 02:08:00,SystemResetWarning,0831.6,4.99,000.00,028.8,026.5,000.0,037.3,030.5,28.9,0000.0,0007.92,0003.76,0003.17
2023-08-12 02:09:00,SystemResetWarning,0831.6,5.00,000.00,028.9,026.9,000.0,037.3,030.6,28.6,0000.0,0007.87,0003.72,0003.17
2023-08-12 02:10:00,SystemResetWarning,0831.6,5.00,000.00,028.9,027.1,000.0,037.3,030.6,28.5,0000.0,0007.82,0003.67,0003.17
2023-08-12 02:11:00,SystemResetWarning,0831.6,5.01,000.00,028.9,027.4,000.0,037.4,030.7,28.7,0000.0,0007.67,0003.65,0003.19
2023-08-12 02:12:00,SystemResetWarning,0831.6,5.01,000.00,029.0,027.6,000.0,037.4,030.8,28.5,0000.0,0007.68,0003.65,0003.21
2023-08-12 02:13:00,SystemResetWarning,0831.6,4.98,000.00,029.0,027.8,000.0,037.4,030.8,28.3,0000.0,0007.76,0003.66,0003.23
2023-08-12 02:14:00,SystemResetWarning,0831.6,4.99,000.00,029.1,027.0,000.0,037.3,030.7,28.3,0000.0,0006.83,0003.67,0003.25
2023-08-12 02:15:00,SystemResetWarning,0831.6,5.01,000.00,029.0,025.6,000.0,037.2,030.5,28.4,0000.0,0006.60,0003.72,0003.29
2023-08-12 02:16:00,SystemResetWarning,0831.6,5.01,000.00,029.0,025.4,000.0,037.2,030.3,28.7,0000.0,0006.76,0003.74,0003.31
2023-08-12 02:17:00,SystemResetWarning,0831.6,4.99,000.00,028.9,025.7,000.0,037.2,030.2,28.9,0000.0,0006.74,0003.75,0003.31
2023-08-12 02:18:00,SystemResetWarning,0831.6,5.00,000.00,028.9,026.0,000.0,037.3,030.3,29.1,0000.0,0006.83,0003.78,0003.33
2023-08-12 02:19:00,SystemResetWarning,0831.6,5.01,000.00,028.9,026.4,000.0,037.3,030.5,29.3,0000.0,0007.43,0003.81,0003.35
2023-08-12 02:20:00,SystemResetWarning,0831.7,5.00,000.00,028.9,026.8,000.0,037.3,030.6,29.9,0000.0,0007.51,0003.86,0003.37
2023-08-12 02:21:00,SystemResetWarning,0831.7,5.00,000.00,028.9,027.1,000.0,037.4,030.6,30.7,0000.0,0007.51,0003.88,0003.38
2023-08-12 02:22:00,SystemResetWarning,0831.8,5.00,000.00,029.0,027.3,000.0,037.4,030.7,30.3,0000.0,0007.56,0003.90,0003.38
2023-08-12 02:23:00,SystemResetWarning,0832.1,5.00,000.00,029.0,027.6,000.0,037.4,030.8,30.1,0000.0,0007.61,0003.92,0003.37
2023-08-12 02:24:00,SystemResetWarning,0832.1,5.01,000.00,029.1,027.8,000.0,037.4,030.8,30.1,0000.0,0007.58,0003.96,0003.38
2023-08-12 02:25:00,SystemResetWarning,0832.1,5.01,000.00,029.1,027.9,000.0,037.5,030.9,30.1,0000.0,0007.69,0004.01,0003.38
2023-08-12 02:26:00,SystemResetWarning,0831.9,4.98,000.00,029.1,026.7,000.0,037.4,030.7,30.0,0000.0,0007.75,0003.99,0003.37
2023-08-12 02:27:00,SystemResetWarning,0832.2,5.01,000.00,029.0,025.5,000.0,037.3,030.4,30.2,0000.0,0007.86,0003.96,0003.37
2023-08-12 02:28:00,SystemResetWarning,0832.1,5.01,000.00,029.0,025.5,000.0,037.2,030.2,30.4,0000.0,0008.20,0003.97,0003.38
2023-08-12 02:29:00,SystemResetWarning,0831.8,5.00,000.00,028.9,025.7,000.0,037.3,030.2,30.6,0000.0,0008.18,0003.95,0003.37
2023-08-12 02:30:00,SystemResetWarning,0831.9,5.00,000.00,028.9,026.1,000.0,037.3,030.4,30.7,0000.0,0007.85,0003.94,0003.37
2023-08-12 02:31:00,SystemResetWarning,0831.9,5.00,000.00,028.9,026.5,000.0,037.4,030.5,30.6,0000.0,0007.70,0003.93,0003.36
2023-08-12 02:32:00,SystemResetWarning,0832.0,5.00,000.00,028.9,026.9,000.0,037.4,030.6,30.8,0000.0,0007.65,0003.93,0003.37
2023-08-12 02:33:00,SystemResetWarning,0832.0,5.00,000.00,029.0,027.2,000.0,037.4,030.7,30.6,0000.0,0007.98,0003.96,0003.37
2023-08-12 02:34:00,SystemResetWarning,0832.0,4.99,000.00,029.0,027.4,000.0,037.4,030.7,30.3,0000.0,0008.36,0003.96,0003.37
2023-08-12 02:35:00,SystemResetWarning,0832.0,4.99,000.00,029.0,027.6,000.0,037.5,030.8,30.3,0000.0,0008.39,0003.95,0003.37
2023-08-12 02:36:00,SystemResetWarning,0832.0,4.99,000.00,029.1,027.8,000.0,037.5,030.9,30.4,0000.0,0008.36,0003.93,0003.37
2023-08-12 02:37:00,SystemResetWarning,0832.1,5.01,000.00,029.1,028.0,000.0,037.5,030.9,30.6,0000.0,0009.10,0003.94,0003.37
2023-08-12 02:38:00,SystemResetWarning,0832.0,4.99,000.00,029.1,027.1,000.0,037.4,030.8,30.5,0000.0,0009.18,0004.00,0003.37
2023-08-12 02:39:00,SystemResetWarning,0832.0,5.00,000.00,029.1,025.3,000.0,037.3,030.4,30.7,0000.0,0008.95,0004.01,0003.37
2023-08-12 02:40:00,SystemResetWarning,0832.0,5.01,000.00,029.0,024.5,000.0,037.2,030.2,30.9,0000.0,0009.14,0004.04,0003.37
2023-08-12 02:41:00,SystemResetWarning,0832.0,5.01,000.00,028.9,024.6,000.0,037.2,030.0,31.2,0000.0,0009.17,0004.03,0003.37
2023-08-12 02:42:00,SystemResetWarning,0832.0,5.00,000.00,028.8,025.0,000.0,037.2,030.0,31.3,0000.0,0009.59,0004.06,0003.38
2023-08-12 02:43:00,SystemResetWarning,0832.0,5.00,000.00,028.7,025.5,000.0,037.3,030.1,31.4,0000.0,0009.91,0004.11,0003.40
2023-08-12 02:44:00,SystemResetWarning,0832.0,4.99,000.00,028.7,025.9,000.0,037.3,030.3,31.2,0000.0,0009.85,0004.08,0003.41
2023-08-12 02:45:00,SystemResetWarning,0832.0,5.00,000.00,028.8,026.4,000.0,037.3,030.4,31.1,0000.0,0009.57,0004.07,0003.41
2023-08-12 02:46:00,SystemResetWarning,0832.0,5.00,000.00,028.8,026.7,000.0,037.3,030.5,30.9,0000.0,0009.59,0004.06,0003.41
2023-08-12 02:47:00,SystemResetWarning,0832.0,5.00,000.00,028.8,027.0,000.0,037.3,030.6,30.6,0000.0,0009.65,0004.04,0003.40
2023-08-12 02:48:00,SystemResetWarning,0832.0,5.01,000.00,028.9,027.3,000.0,037.3,030.6,30.6,0000.0,0008.93,0004.01,0003.39
2023-08-12 02:49:00,SystemResetWarning,0832.0,4.99,000.00,028.9,027.5,000.0,037.4,030.7,30.2,0000.0,0008.79,0003.99,0003.38
2023-08-12 02:50:00,SystemResetWarning,0832.0,4.99,000.00,029.0,027.7,000.0,037.4,030.8,30.0,0000.0,0009.04,0003.97,0003.37
2023-08-12 02:51:00,SystemResetWarning,0832.0,5.00,000.00,029.0,027.8,000.0,037.4,030.8,30.0,0000.0,0008.76,0003.94,0003.36
2023-08-12 02:52:00,SystemResetWarning,0832.0,5.00,000.00,029.1,028.0,000.0,037.4,030.9,29.9,0000.0,0008.70,0003.93,0003.35
2023-08-12 02:53:00,SystemResetWarning,0832.0,4.99,000.00,029.1,027.0,000.0,037.4,030.7,30.1,0000.0,0008.37,0003.89,0003.34
2023-08-12 02:54:00,SystemResetWarning,0831.9,5.00,000.00,029.0,025.6,000.0,037.3,030.4,30.1,0000.0,0008.03,0003.84,0003.31
2023-08-12 02:55:00,SystemResetWarning,0831.9,5.01,000.00,028.9,025.3,000.0,037.2,030.2,30.1,0000.0,0007.82,0003.81,0003.28
2023-08-12 02:56:00,SystemResetWarning,0831.9,5.01,000.00,028.9,025.6,000.0,037.2,030.1,30.0,0000.0,0007.53,0003.79,0003.27
2023-08-12 02:57:00,SystemResetWarning,0831.9,5.00,000.00,028.8,025.9,000.0,037.3,030.3,30.0,0000.0,0007.58,0003.82,0003.27
2023-08-12 02:58:00,SystemResetWarning,0831.9,5.00,000.00,028.8,026.3,000.0,037.3,030.4,29.9,0000.0,0007.47,0003.85,0003.26
2023-08-12 02:59:00,SystemResetWarning,0832.0,5.00,000.00,028.9,026.7,000.0,037.3,030.5,29.8,0000.0,0007.70,0003.90,0003.26
